Flag for Germany Weather past 2 weeks in Potsdam, Brandenburg, Germany

Now
46 °F

Passing clouds.


Feels Like: 45 °F
Forecast: 46 / 53 °F
Wind: 3 mph from South

Location: Potsdam

Current Time: Mar 28, 2015 at 6:57:05 PM

Latest Report: Mar 28, 2015 at 6:00 PM


Visibility: 19 mi

Pressure: 29.99 "Hg

Humidity: 51%

Dew point: 29 °F

Location of PotsdamLocation

Historic Weather in Potsdam — Graph

°F

Potsdam temperature yesterday

Maximum temperature yesterday: 50 °F (at 2:00 PM)
Minimum temperature yesterday: 40 °F (at 6:00 AM)
Average temperature yesterday: 44 °F

Past Weeks' High & Low Weather Summary

 TemperatureHumidityPressure
High63 °F (Mar 17, 3:00 PM)99% (Mar 25, 6:00 AM)30.47 "Hg (Mar 25, 6:00 AM)
Low29 °F (Mar 23, 6:00 AM)20% (Mar 18, 4:00 PM)29.63 "Hg (Mar 26, 4:00 AM)
Average44 °F70%30.15 "Hg
* Reported Mar 13 5:00 PM — Mar 28 5:00 PM, Potsdam, Weather by CustomWeather, © 2015

Note: Actual official high and low records may vary slightly from our data, if they occured in-between our weather recording intervals... More about our weather records

Advertising

Potsdam weather history for previous 24 hours

 ConditionsComfort  
Time TempWeatherWind HumidityBarometerVisibility
5:00 PM
Sat, Mar 28
49 °FScattered clouds.3 mph45%29.99 "Hg19 mi
4:00 PM49 °FPartly sunny.5 mph50%30.02 "Hg14 mi
3:00 PM49 °FOvercast.3 mph56%30.05 "Hg14 mi
2:00 PM47 °FOvercast.2 mph56%30.08 "Hg14 mi
1:00 PM47 °FPartly sunny.3 mph55%30.10 "Hg11 mi
12:00 PM45 °FOvercast.1 mph75%30.12 "Hg6 mi
11:00 AM44 °FOvercast.2 mph83%30.15 "Hg4 mi
10:00 AM42 °FFog.3 mph88%30.16 "Hg4 mi
9:00 AM42 °FLow clouds.3 mph93%30.16 "Hg2 mi
8:00 AM42 °FFog.5 mph95%30.16 "Hg2 mi
7:00 AM41 °FLow clouds.5 mph97%30.16 "Hg2 mi
6:00 AM41 °FRain. Low clouds.6 mph98%30.14 "Hg4 mi
5:00 AM41 °FLight rain. Low clouds.6 mph98%30.13 "Hg6 mi
4:00 AM43 °FOvercast.6 mph90%30.12 "Hg14 mi
3:00 AM43 °FOvercast.7 mph88%30.11 "Hg16 mi
2:00 AM43 °FOvercast.7 mph89%30.10 "Hg16 mi
1:00 AM43 °FOvercast.7 mph90%30.09 "Hg16 mi
12:00 AM43 °FOvercast.6 mph91%30.08 "Hg16 mi
11:00 PM
Fri, Mar 27
44 °FOvercast.6 mph89%30.06 "Hg16 mi
10:00 PM43 °FOvercast.6 mph94%30.04 "Hg16 mi
9:00 PM43 °FRain. Overcast.6 mph94%30.03 "Hg25 mi
8:00 PM44 °FOvercast.8 mph82%30.01 "Hg22 mi
7:00 PM45 °FSprinkles. Overcast.7 mph75%29.99 "Hg17 mi
6:00 PM47 °FOvercast.7 mph68%29.96 "Hg28 mi
Weather by CustomWeather, © 2015

See weather overviewHow to use our weather pages